Погода в Поречье

Россия / Псковская область     56°05′44″N   30°28′42″E
темп.,
°C
ветер,
м/с
пор.,
м/с
влажн.,
%
обл.,
%
осадки,
мм/ч
давл.,
гПа
погр.,
м
6 марта, сб
сб600:00−7зсз268266 0.1 1018172
03:00−7зсз268233 0.1 1019159
06:00−8зсз24830 0.0 1019104
09:00−7зсз36790 0.0 1020311
12:00−3зсз356459 0.0 10201182
15:00−2з465465 0.1 10181391
18:00−3зюз3105919 0.0 1015716
21:00−3зюз5135858 0.0 10131069
7 марта, вс
вс700:00−2зюз61469100 0.0 10081097
03:00−2юз71683100 0.1 10031216
06:00−1юз81692100 1.8 9961274
09:00−2з81688100 4.4 9941497
12:00−3зсз8165267 0.4 9991908
15:00−2з8165455 0.4 9992268
18:00−4з7148799 0.3 9961426
21:00−4з61573100 0.9 9951467
8 марта, пн
пн800:00−8сз9177892 0.6 9981622
03:00−9сз6137996 0.7 1003937
06:00−9сз5128389 0.0 1004821
09:00−8сз5108393 0.0 1006884
12:00−6сз5878100 0.1 10081057
15:00−6ссз5873100 0.3 10101083
18:00−7ссз4880100 0.1 10121028
21:00−9ссз4987100 0.2 1015972
9 марта, вт
вт900:00−10ссз4885100 0.1 1017758
03:00−12сз389083 0.1 1018365
06:00−13зсз26915 0.0 1020210
09:00−11з26854 0.0 1020265
12:00−5з5107098 0.0 1019791
15:00−2зсз6115999 0.0 10181452
18:00−3з41164100 0.0 10171147
21:00−4з41365100 0.0 1018752
10 марта, ср
ср1000:00−5з41365100 0.0 1018582
03:00−6зюз41169100 0.0 1017513
06:00−6зюз41176100 0.0 1016457
09:00−5зюз4878100 0.0 1015532
12:00−2зюз467589 0.0 1014633
15:000юз467090 0.0 1013979
18:00−1ююз288097 0.0 1011432
21:00−3ююз399395 0.1 1010427